Location: Anumalkud?ru
(16.4847°N, 80.6636°E)
Time: 14:59:20
(UTC+00:00)

USA 229 DEB - Pass Details

Date: 11 April 2026
Orbit: 844 x 1364 km, 63.4° (Epoch: 10 January)

Event Time Altitude Azimuth Distance (km) Brightness Sun altitude
Rises 22:31:25 0° 336° (NNW) 4,222 6.8 -27.1°
Reaches altitude 10° 22:34:09 10° 336° (NNW) 3,304 6.2 -26.5°
Maximum altitude 22:42:22 87° 66° (ENE) 1,358 4.1 -24.6°
Drops below altitude 10° 22:50:50 10° 155° (SSE) 3,404 6.4 -22.7°
Sets 22:53:41 0° 155° (SSE) 4,355 7.0 -22.1°
